RH
42 40 33 32 32 28 24 21 20 16 16 17 24 19 18 21 29 26 38 67 67 82 64 67 100 98 99 95 96 99 92 90 85 70 98 100 74 64 51 48 45 42 39
42 37 34 28 24 21 17 16 16 14 12 14 26 30 24 34 42 54 98 100 83 95 99 96 85 99 100 100 100 100 100 91 85 58 88 95 79 68 63 51 74 60 47
32 29 28 21 16 16 15 14 12 11 10 8 16 27 45 51 86 97 100 99 100 91 100 100 99 98 94 75 97 100 82 77 69 100 100 94 73 76 67 58 71 78 55
18 20 16 15 16 16 14 13 11 11 9 14 51 32 37 63 100 100 100 100 98 100 100 100 100 100 98 90 89 96 100 79 78 100 100 100 98 96 81 86 86 96 82
15 14 16 21 18 17 15 13 11 10 9 12 69 12 18 22 99 100 100 100 100 100 100 100 100 100 100 99 96 100 99 87 79 100 100 100 100 100 100 94 79 84 87
16 19 28 29 21 20 19 14 12 11 12 11 12 14 10 18 100 100 100 99 100 100 97 100 100 100 100 100 89 83 98 92 97 77 100 100 100 100 100 100 100 100 96
22 26 23 22 21 24 20 18 15 19 25 23 17 10 9 14 94 100 100 100 100 100 95 84 100 100 100 96 65 64 73 80 97 92 100 100 100 100 100 100 100 97 97
26 20 23 25 30 28 24 21 30 35 25 18 12 10 10 8 11 48 98 100 100 100 82 62 42 42 46 41 50 57 78 97 100 80 100 98 100 100 100 100 94 89 93
29 45 45 46 37 28 31 34 42 32 22 24 21 13 12 12 11 16 37 69 63 59 61 75 85 72 65 51 74 92 99 100 100 100 100 100 100 100 100 100 88 94 95
38 38 55 41 41 39 41 54 23 24 22 29 31 16 15 16 18 18 26 31 41 79 80 71 82 85 100 76 77 86 82 75 96 100 100 100 100 100 100 100 97 99 69
47 47 46 41 45 44 37 28 23 20 22 35 51 32 19 41 38 50 86 93 94 98 82 80 97 100 100 100 84 58 79 99 90 93 100 98 100 100 100 97 75 64 64
60 50 43 42 44 49 44 34 29 24 27 52 77 56 24 64 80 100 100 100 100 100 74 89 97 100 100 100 100 62 85 100 96 100 100 96 100 98 93 92 73 78 85
59 55 52 54 50 49 47 41 36 32 30 57 93 75 38 67 100 100 100 100 100 80 92 97 88 79 100 100 100 97 56 100 100 97 69 78 72 57 85 100 83 84 82
63 53 48 48 44 40 44 46 46 43 43 45 98 91 78 61 91 90 98 100 99 96 100 100 100 100 84 100 100 100 93 98 100 100 100 96 82 67 62 87 100 87 54
60 57 50 41 32 28 27 35 43 46 47 49 81 100 92 85 82 82 96 100 100 100 100 100 100 100 100 100 99 97 100 93 100 100 89 100 78 86 72 90 89 68 66
26 25 23 23 22 23 28 32 36 55 52 58 59 100 100 93 79 74 88 100 100 100 100 100 98 98 100 100 84 87 93 93 79 100 96 100 96 59 53 65 100 100 100
34 33 36 36 35 35 35 32 29 40 55 63 58 76 100 100 85 71 80 100 100 100 99 100 75 100 83 100 93 72 65 96 100 100 94 94 100 100 92 61 98 81 72
31 30 31 31 31 32 31 30 31 30 29 44 56 59 99 100 100 80 86 100 100 100 100 100 100 100 100 100 82 73 99 83 88 100 100 93 77 89 76 61 58 50 96
32 28 35 38 34 28 32 31 28 28 29 29 29 46 60 100 100 100 92 100 100 99 100 100 100 92 100 96 100 57 65 69 69 72 97 100 100 100 95 78 70 60 94
80 79 71 50 45 53 48 48 38 30 25 26 25 26 42 69 100 100 92 92 100 100 100 100 100 100 100 100 100 100 65 66 61 83 71 85 100 100 100 98 71 76 99
59 73 79 94 100 100 94 82 56 47 36 32 26 25 24 34 58 96 100 96 86 100 100 92 100 100 100 100 93 87 100 67 42 68 90 67 92 100 100 100 100 56 93
67 66 76 71 73 77 95 97 100 94 57 46 41 30 31 26 29 47 76 100 98 84 100 100 100 100 100 100 100 75 69 100 48 33 65 89 60 97 100 100 100 96 55
94 100 96 90 80 100 94 100 70 80 90 67 49 38 34 32 25 25 35 53 86 100 88 96 100 100 96 100 100 97 98 89 100 48 58 65 56 66 61 63 97 94 44
98 100 97 95 100 100 100 100 100 93 75 84 73 56 38 33 32 35 25 27 36 56 91 93 91 95 100 100 100 100 100 77 100 94 51 54 36 49 71 75 88 100 54
100 100 100 100 100 100 100 100 100 100 93 82 72 76 68 56 46 41 25 26 23 26 37 61 83 92 94 100 98 87 96 94 100 100 100 37 37 27 54 83 90 100 100
100 100 100 100 100 100 100 100 100 100 100 99 69 57 73 70 55 48 41 36 30 26 20 25 36 52 69 81 89 81 78 78 96 97 100 100 74 36 27 59 87 99 100
Wind_Speed
123 123 121 120 122 123 125 108 100 83 84 70 67 67 67 74 67 73 70 66 73 70 71 67 67 66 59 62 68 73 71 69 69 70 72 73 69 69 71 69 71 74 79
130 127 123 119 119 113 94 86 78 65 64 55 58 57 57 67 57 56 49 49 52 61 70 69 70 71 68 67 68 76 76 81 77 67 70 73 69 72 74 71 76 80 76
119 117 117 102 89 82 75 66 60 57 50 50 48 57 56 41 18 30 41 45 51 51 65 70 68 69 73 74 75 75 75 66 64 58 61 62 69 73 72 76 76 78 84
106 93 81 79 71 66 62 59 53 54 47 55 51 41 39 36 22 22 37 50 44 41 44 58 61 61 71 70 67 65 61 60 56 55 58 51 55 59 68 70 71 77 83
83 81 73 66 58 59 55 56 56 57 51 55 64 56 43 42 40 35 41 48 51 46 49 55 59 60 58 59 58 59 59 57 52 57 55 52 47 48 55 66 72 75 81
75 69 60 59 57 55 56 60 56 56 58 56 59 58 45 51 60 55 57 48 47 52 53 55 48 50 55 58 56 57 63 56 52 54 56 55 48 48 47 53 54 65 70
67 66 61 58 49 50 55 57 56 56 53 50 48 47 45 59 72 66 71 66 65 61 63 63 63 55 53 59 58 52 60 58 55 49 57 53 53 47 46 51 52 54 58
66 63 55 49 44 50 55 56 54 51 43 42 42 41 45 53 65 76 83 80 73 71 59 53 51 45 45 46 42 43 47 50 54 48 51 54 54 47 46 50 50 50 50
59 48 46 44 49 53 54 54 50 43 40 42 40 40 41 45 54 63 69 76 75 66 50 35 33 34 34 38 36 39 41 49 48 48 48 53 53 49 51 52 49 45 45
50 45 45 48 48 49 50 48 45 41 39 41 39 39 41 44 47 48 48 49 49 44 39 35 33 30 28 33 39 43 45 49 54 53 51 53 56 52 51 50 45 44 44
45 44 42 46 45 48 47 44 42 39 38 37 36 37 41 41 43 44 37 40 40 34 34 31 29 30 33 32 37 42 44 44 48 56 60 55 56 58 54 54 51 49 44
45 44 43 44 45 44 44 42 39 38 37 36 37 38 45 44 48 46 42 39 39 33 31 29 35 38 38 38 37 40 42 43 43 52 51 55 57 56 57 58 55 54 53
44 46 47 48 47 46 45 42 39 36 35 38 40 40 46 52 52 52 47 38 36 31 37 41 47 44 42 46 43 42 45 41 43 45 54 49 55 53 58 60 59 58 53
45 46 47 48 48 46 46 45 42 40 38 39 42 43 46 54 56 57 52 49 56 46 46 25 51 47 47 51 48 47 45 50 44 49 52 57 56 59 53 57 60 58 53
46 48 50 52 51 50 49 49 47 46 44 41 44 47 49 52 59 59 59 52 54 59 67 59 64 56 52 61 57 56 47 52 61 61 54 53 57 55 53 57 58 58 58
43 46 48 50 51 52 52 53 54 52 51 47 47 52 54 56 62 63 61 56 49 68 71 65 64 62 68 65 64 60 54 49 55 61 64 57 56 61 59 61 65 63 62
36 39 42 46 47 49 50 53 55 57 56 54 52 56 59 62 63 68 67 65 62 68 73 71 66 65 67 74 74 71 69 57 57 64 61 69 63 56 61 61 63 59 58
17 23 35 45 47 46 51 55 54 56 61 62 60 60 63 67 68 71 72 72 67 74 79 80 75 73 77 80 76 74 71 69 68 69 68 65 69 61 64 69 65 62 59
28 37 36 28 37 45 34 49 57 56 57 60 66 68 68 72 74 75 78 82 71 81 83 85 81 81 74 74 75 77 81 76 75 69 74 74 67 69 72 72 72 65 60
38 41 41 41 45 46 48 50 42 55 54 58 61 68 74 76 81 81 82 89 83 82 89 90 96 94 86 89 88 90 89 84 80 74 74 78 78 73 66 66 73 67 63
37 41 44 51 55 49 52 54 58 55 46 47 57 63 71 82 88 89 89 93 98 93 91 99 98 99 98 96 105 98 96 96 90 84 77 81 86 84 82 82 81 72 68
55 55 56 57 52 50 57 55 60 53 56 57 53 55 53 78 90 96 100 97 99 107 103 101 109 108 108 110 110 106 104 97 95 92 89 87 88 94 89 88 86 88 78
58 57 60 58 67 65 63 69 59 57 54 57 58 63 60 57 80 93 104 106 107 107 114 115 112 113 117 116 118 118 112 103 102 101 95 94 92 91 92 91 91 91 82
59 61 63 64 66 67 77 77 83 74 61 55 59 65 68 65 67 61 98 104 117 119 119 121 123 123 122 123 124 121 121 115 107 105 107 105 102 96 94 93 92 98 91
61 64 66 70 72 70 76 85 84 84 71 64 57 60 62 69 72 71 68 82 107 114 128 131 130 131 134 133 134 132 128 125 117 116 114 111 109 106 101 99 99 98 98
65 66 67 70 73 77 85 83 88 88 79 74 69 64 63 66 69 73 72 74 79 91 109 126 138 141 141 141 142 144 142 139 136 129 123 119 113 111 110 107 103 100 100
Wind_Direction
289 290 287 287 285 284 287 288 283 284 285 288 288 279 279 274 278 274 277 279 277 273 269 266 256 268 257 255 257 260 261 264 267 264 257 255 248 247 245 239 238 237 234
286 284 285 284 284 287 285 285 282 281 280 283 280 277 277 274 278 282 286 287 283 275 267 266 255 260 259 259 261 260 264 266 266 268 260 256 250 248 246 240 239 237 237
282 282 282 286 285 286 281 278 280 279 278 274 268 271 267 273 262 276 289 277 275 273 263 261 264 261 257 262 257 267 267 266 263 254 254 257 254 249 246 243 241 239 236
282 278 283 281 282 278 278 276 273 271 276 279 267 265 258 242 178 209 259 274 262 271 271 266 267 265 262 263 264 259 257 262 252 248 247 252 256 253 251 248 247 241 240
283 283 280 281 277 275 272 268 271 274 273 270 258 270 257 232 187 190 217 241 250 252 263 272 268 266 258 259 261 256 253 254 253 242 244 242 245 247 249 249 249 247 244
280 279 280 277 279 274 271 271 272 275 272 267 262 258 249 222 205 205 218 234 241 239 245 246 250 254 254 256 262 256 250 251 251 247 239 241 242 247 250 248 249 247 247
277 275 278 277 275 271 270 271 272 272 270 266 261 257 244 218 211 214 213 228 237 243 240 246 250 250 253 258 261 256 245 251 245 244 244 241 240 243 249 247 245 246 248
276 277 280 280 271 269 268 270 270 271 270 272 265 260 236 223 218 223 222 229 239 244 246 250 251 254 253 255 255 248 243 240 244 243 244 243 237 238 250 254 252 250 247
275 273 274 269 263 267 270 271 269 272 273 270 264 251 235 225 224 226 231 235 238 241 238 241 260 268 271 256 251 241 247 239 236 232 241 240 235 239 244 251 256 251 244
271 270 267 265 267 268 268 270 271 268 268 267 263 249 231 226 220 221 225 227 228 232 248 258 263 277 293 272 256 246 249 245 235 231 238 239 241 241 245 247 252 248 250
269 266 266 269 270 270 271 268 266 266 264 260 251 242 227 224 217 203 209 218 229 242 254 262 267 272 279 280 264 251 246 244 240 238 238 241 244 241 245 244 250 247 249
267 265 265 267 270 269 265 267 267 268 264 257 245 237 223 217 209 217 217 228 241 238 241 257 265 270 276 281 281 249 241 245 243 237 235 239 243 246 245 245 247 247 245
262 263 265 264 264 266 266 266 264 265 263 250 246 232 224 213 215 222 216 228 228 239 253 262 264 262 265 271 271 270 247 241 245 247 240 245 245 243 244 246 247 245 247
268 269 270 270 269 267 268 266 265 264 261 261 242 232 228 220 220 223 218 233 237 242 255 234 251 253 261 259 263 265 258 234 232 240 243 250 249 242 242 243 241 241 243
272 273 273 271 270 268 266 264 263 260 261 255 243 233 233 227 221 223 226 234 238 227 237 240 238 251 243 252 251 254 252 241 228 229 241 256 246 241 248 244 244 244 248
275 273 272 270 269 267 265 262 258 255 252 252 244 232 231 229 224 219 224 221 219 224 235 238 237 246 244 249 251 252 247 251 238 236 232 241 248 251 249 246 243 243 247
283 280 278 278 276 277 274 267 261 256 254 251 245 237 228 228 227 222 226 225 228 226 232 234 235 243 240 244 248 251 250 244 246 233 235 240 243 246 247 244 238 242 249
276 288 282 272 273 276 275 272 266 260 255 250 248 242 233 225 226 228 226 227 233 227 229 232 237 235 234 240 244 243 242 243 243 242 239 238 241 239 244 246 242 252 248
321 316 327 326 283 279 299 275 267 266 264 256 248 245 238 230 226 229 226 223 231 227 228 234 233 238 236 235 245 243 240 244 246 244 238 235 240 243 242 245 251 248 244
4 357 350 339 329 327 320 316 299 279 268 267 261 247 241 239 231 229 231 224 231 233 229 230 235 239 240 240 240 243 243 246 246 245 243 236 235 235 245 251 250 245 241
10 11 9 6 5 356 346 334 316 308 283 286 261 262 253 244 239 236 232 232 231 233 235 235 235 237 236 240 240 244 243 241 243 243 245 239 231 232 238 248 253 245 236
9 5 1 360 353 347 348 346 346 321 301 297 289 270 263 250 246 242 239 235 236 235 236 238 236 237 238 240 241 243 242 243 241 240 243 243 237 233 238 243 247 249 239
2 359 354 353 354 349 344 344 331 327 320 298 291 290 283 271 250 248 246 243 240 239 238 239 241 242 240 240 242 242 244 244 246 242 244 240 241 240 240 242 244 244 246
353 351 351 350 348 347 344 340 340 333 320 313 293 290 288 281 276 267 245 246 245 244 242 240 242 244 244 243 243 243 241 242 242 244 242 242 241 239 238 239 241 245 249
350 349 345 346 343 343 342 342 337 333 325 316 305 288 285 285 282 275 252 248 246 247 246 244 245 244 243 243 244 245 245 242 238 239 243 241 242 241 238 239 240 244 249
344 343 343 343 342 342 340 336 336 335 324 320 311 298 288 283 280 279 274 265 257 247 245 246 247 248 246 247 246 246 246 245 244 238 237 240 240 241 239 239 240 242 245